Weather History for Munising, MI

Change the Weather History Date:

Monday, July 8, 2013

  Actual Average (KISQ) Record (KISQ)
Temperature  
Mean Temperature 60 °F -  
Max Temperature 66 °F 73 °F 87 °F (1960)
Min Temperature 55 °F 55 °F 40 °F (1963)
Degree Days  
Heating Degree Days 4    
Growing Degree Days 10 (Base 50)    
Moisture  
Dew Point 56 °F    
Average Humidity 89    
Maximum Humidity 97    
Minimum Humidity 78    
Precipitation  
Precipitation 0.06 in - - ()
Sea Level Pressure  
Sea Level Pressure 29.98 in    
Wind  
Wind Speed 5 mph (North)    
Max Wind Speed 13 mph    
Max Gust Speed -    
Averages and records for this station are not official NWS values.
T = Trace of Precipitation, MM = Missing Value Source: NWS Daily Summary

Daily Weather History Graph

Daily Weather History Graph

Search for Another Location

Airport:

Trip Planner

Search our weather history database for the weather conditions in past years. The results will help you decide how hot, cold, wet, or windy it might be!

Date:

Astronomy

Jul. 08, 2013 Rise Set
Actual Time 6:03 AM EDT 9:39 PM EDT
Civil Twilight 5:24 AM EDT 10:18 PM EDT
Nautical Twilight 4:33 AM EDT 11:08 PM EDT
Astronomical Twilight 3:24 AM EDT 12:17 AM EDT
Moon 6:37 AM EDT (7/8) 9:34 PM EDT (7/8)
Length of Visible Light 16h 53m
Length of Day
15h 36m
New Moon, 0% of the Moon is Illuminated
Jul 8
New Moon
Jul 15
First Quarter
Jul 22
Full
Jul 29
Last Quarter
Aug 6
New

Hourly Weather History & Observations

Time (EDT) Temp. Dew Point Humidity Pressure Visibility Wind Dir Wind Speed Gust Speed Precip Events Conditions
12:56 AM 59.0 °F 57.0 °F 93% 29.96 in - NNE 5.8 mph - N/A   Unknown
1:56 AM 57.9 °F 55.9 °F 93% 29.96 in - North 8.1 mph - N/A   Unknown
2:56 AM 57.0 °F 55.0 °F 93% 29.96 in - Calm Calm - N/A   Unknown
3:56 AM 57.9 °F 55.9 °F 93% 29.94 in - Calm Calm - N/A   Unknown
4:56 AM 59.0 °F 57.0 °F 93% 29.94 in - Calm Calm - N/A   Unknown
5:56 AM 60.1 °F 55.9 °F 86% 29.96 in - Calm Calm - N/A   Unknown
6:56 AM 60.1 °F 55.9 °F 86% 29.96 in - Variable 4.6 mph - N/A   Unknown
7:56 AM 59.0 °F 55.9 °F 90% 29.95 in - Calm Calm - 0.06 in   Unknown
8:56 AM 59.0 °F 55.9 °F 90% 29.97 in - NE 10.4 mph - N/A   Unknown
9:56 AM 59.0 °F 55.9 °F 90% 29.97 in - North 4.6 mph - N/A   Unknown
10:56 AM 62.1 °F 57.0 °F 84% 29.96 in - East 3.5 mph - N/A   Unknown
11:56 AM 66.0 °F 60.1 °F 81% 29.96 in - NE 4.6 mph - N/A   Unknown
12:56 PM 64.0 °F 59.0 °F 84% 29.99 in - NNW 12.7 mph - N/A   Unknown
1:05 PM 64.4 °F 59.0 °F 83% 29.98 in - NNW 12.7 mph - N/A   Unknown
1:56 PM 63.0 °F 57.9 °F 84% 29.99 in - NNW 9.2 mph - N/A   Unknown
2:56 PM 64.9 °F 57.9 °F 78% 29.98 in - North 5.8 mph - N/A   Unknown
3:56 PM 61.0 °F 57.0 °F 87% 29.99 in - NNE 10.4 mph - N/A   Unknown
4:56 PM 57.9 °F 55.0 °F 90% 30.00 in - NNW 10.4 mph - N/A   Unknown
5:56 PM 60.1 °F 55.9 °F 86% 30.00 in - NNW 10.4 mph - N/A   Unknown
6:56 PM 57.9 °F 55.0 °F 90% 30.00 in - NNW 8.1 mph - N/A   Unknown
7:56 PM 57.9 °F 55.9 °F 93% 30.00 in - NNW 4.6 mph - N/A   Unknown
8:56 PM 57.9 °F 55.9 °F 93% 30.00 in - NNW 5.8 mph - N/A   Unknown
9:56 PM 55.9 °F 55.0 °F 97% 30.02 in - NW 5.8 mph - N/A   Unknown
10:56 PM 55.9 °F 55.0 °F 97% 30.03 in - NNE 3.5 mph - N/A   Unknown
11:56 PM 57.0 °F 55.0 °F 93% 30.02 in - Calm Calm - N/A   Unknown